Home > Weather > Illnau-Effretikon > Past weeks

Flag for Switzerland Past Weather in Illnau-Effretikon, Zurich, Switzerland — Yesterday and Last 2 Weeks

Now
70 °F

Mild.


Feels Like: 70 °F
Forecast: 57 / 80 °F
Wind: 2 mph from South

Location: Zuerich-Fluntern

Current Time: Jul 28, 2016 at 12:30:09 PM

Latest Report: Jul 28, 2016 at 11:00 AM


Visibility: N/A

Pressure: 30.06 "Hg (28.31 "Hg at 514m altitude)

Humidity: 72%

Dew Point: 60 °F

Location of Illnau-EffretikonLocation

Past Weather in Illnau-Effretikon — Graph

°F

Illnau-Effretikon Temperature Yesterday

Maximum temperature yesterday: 77 °F (at 5:00 PM)
Minimum temperature yesterday: 62 °F (at 5:00 AM)
Average temperature yesterday: 68 °F

High & Low Weather Summary for the Past Weeks

 TemperatureHumidityPressure
High88 °F (Jul 20, 5:00 PM)100% (Jul 19, 4:00 PM)30.37 "Hg (Jul 19, 4:00 PM)
Low47 °F (Jul 16, 5:00 AM)32% (Jul 20, 7:00 PM)29.88 "Hg (Jul 20, 7:00 PM)
Average66 °F75%30.10 "Hg
* Reported Jul 13 11:00 AM — Jul 28 11:00 AM, Illnau-Effretikon, Weather by CustomWeather, © 2016

Note: Actual official high and low records may vary slightly from our data, if they occured in-between our weather recording intervals... More about our weather records

Advertising

Illnau-Effretikon Weather History for the Previous 24 Hours

Scroll right to see more
 ConditionsComfort  
Time TempWeatherWind HumidityBarometerVisibility
11:00 AM
Thu, Jul 28
70 °FMild.2 mph72%30.06 "HgN/A
10:00 AM65 °FMild.3 mph79%30.07 "HgN/A
9:00 AM63 °FMild.No wind84%30.07 "HgN/A
8:00 AM62 °FPartly sunny.2 mph89%30.08 "HgN/A
7:00 AM61 °FCool.1 mph86%30.08 "HgN/A
6:00 AM60 °FCool.No wind92%30.09 "HgN/A
5:00 AM61 °FCool.1 mph90%30.09 "HgN/A
4:00 AM61 °FCool.1 mph90%30.09 "HgN/A
3:00 AM61 °FCool.No wind89%30.09 "HgN/A
2:00 AM63 °FMild.2 mph84%30.10 "HgN/A
1:00 AM62 °FCool.1 mph83%30.09 "HgN/A
12:00 AM64 °FMild.1 mph80%30.09 "HgN/A
11:00 PM
Wed, Jul 27
66 °FMild.3 mph72%30.09 "HgN/A
10:00 PM66 °FMild.6 mph72%30.08 "HgN/A
9:00 PM68 °FMild.7 mph66%30.05 "HgN/A
8:00 PM74 °FPartly sunny.8 mph43%30.00 "HgN/A
7:00 PM75 °FMild.8 mph39%29.98 "HgN/A
6:00 PM75 °FMild.3 mph67%29.98 "HgN/A
5:00 PM77 °FWarm.6 mph49%29.98 "HgN/A
4:00 PM76 °FMild.6 mph55%29.99 "HgN/A
3:00 PM74 °FMild.5 mph66%30.01 "HgN/A
2:00 PM74 °FPartly sunny.3 mph67%30.02 "HgN/A
1:00 PM69 °FMild.5 mph82%30.05 "HgN/A
12:00 PM68 °FMild.3 mph80%30.07 "HgN/A
Weather by CustomWeather, © 2016

See weather overviewHow to use our weather pages